Time,TemperatureF,DewpointF,PressureIn,WindDirection,WindDirectionDegrees,WindSpeedMPH,WindSpeedGustMPH,Humidity,HourlyPrecipIn,Conditions,Clouds,dailyrainin,SolarRadiationWatts/m^2,SoftwareType,DateUTC
2013-07-28 00:02:00,79.0,76.5,29.99,WSW,240,1.0,2.0,92,0.00,,,0.01,0,Wunderground v.1.15,2013-07-28 04:02:00,
2013-07-28 00:06:00,78.9,76.4,29.99,WSW,240,0.0,3.0,92,0.00,,,0.01,0,Wunderground v.1.15,2013-07-28 04:06:00,
2013-07-28 00:08:00,78.9,76.4,29.99,SW,236,0.0,3.0,92,0.00,,,0.00,0,Wunderground v.1.15,2013-07-28 04:08:00,
2013-07-28 00:12:00,78.9,76.4,29.99,WSW,238,1.0,1.0,92,0.00,,,0.00,0,Wunderground v.1.15,2013-07-28 04:12:00,
2013-07-28 00:18:00,78.8,76.3,29.99,WSW,242,2.0,4.0,92,0.00,,,0.00,0,Wunderground v.1.15,2013-07-28 04:18:00,
2013-07-28 00:24:00,78.8,76.6,29.99,WSW,242,3.0,5.0,93,0.00,,,0.00,0,Wunderground v.1.15,2013-07-28 04:24:00,
2013-07-28 00:28:00,78.8,76.6,29.99,WSW,242,3.0,5.0,93,0.00,,,0.00,0,Wunderground v.1.15,2013-07-28 04:28:00,
2013-07-28 00:34:00,78.7,76.5,29.99,WSW,242,1.0,2.0,93,0.00,,,0.00,0,Wunderground v.1.15,2013-07-28 04:34:00,
2013-07-28 00:40:00,78.7,76.5,29.99,WSW,242,0.0,0.0,93,0.00,,,0.00,0,Wunderground v.1.15,2013-07-28 04:40:00,
2013-07-28 00:46:00,78.6,76.4,29.99,WSW,242,0.0,0.0,93,0.00,,,0.00,0,Wunderground v.1.15,2013-07-28 04:46:00,
2013-07-28 00:52:00,78.5,76.3,29.99,WSW,242,0.0,0.0,93,0.00,,,0.00,0,Wunderground v.1.15,2013-07-28 04:52:00,
2013-07-28 00:58:00,78.5,76.3,29.99,WSW,242,0.0,0.0,93,0.00,,,0.00,0,Wunderground v.1.15,2013-07-28 04:58:00,
2013-07-28 01:04:00,78.4,76.2,29.99,WSW,242,0.0,0.0,93,0.00,,,0.00,0,Wunderground v.1.15,2013-07-28 05:04:00,
2013-07-28 01:10:00,78.4,76.2,29.99,WSW,242,0.0,0.0,93,0.00,,,0.00,0,Wunderground v.1.15,2013-07-28 05:10:00,
2013-07-28 01:16:00,78.3,76.1,29.99,WSW,242,0.0,0.0,93,0.00,,,0.00,0,Wunderground v.1.15,2013-07-28 05:16:00,
2013-07-28 01:22:00,78.3,76.1,29.99,WSW,242,0.0,0.0,93,0.00,,,0.00,0,Wunderground v.1.15,2013-07-28 05:22:00,
2013-07-28 01:28:00,78.3,76.1,29.99,WSW,242,0.0,0.0,93,0.00,,,0.00,0,Wunderground v.1.15,2013-07-28 05:28:00,
2013-07-28 01:34:00,78.3,76.1,29.99,WSW,242,1.0,4.0,93,0.00,,,0.00,0,Wunderground v.1.15,2013-07-28 05:34:00,
2013-07-28 01:40:00,78.4,76.2,29.99,WSW,242,1.0,1.0,93,0.00,,,0.00,0,Wunderground v.1.15,2013-07-28 05:40:00,
2013-07-28 01:46:00,78.4,76.2,29.98,WSW,242,0.0,1.0,93,0.00,,,0.00,0,Wunderground v.1.15,2013-07-28 05:46:00,
2013-07-28 01:52:00,78.4,76.2,29.98,WSW,242,0.0,0.0,93,0.00,,,0.00,0,Wunderground v.1.15,2013-07-28 05:52:00,
2013-07-28 01:58:00,78.4,76.2,29.98,WSW,242,0.0,0.0,93,0.00,,,0.00,0,Wunderground v.1.15,2013-07-28 05:58:00,
2013-07-28 02:04:00,78.4,76.2,29.98,WSW,242,0.0,0.0,93,0.00,,,0.00,0,Wunderground v.1.15,2013-07-28 06:04:00,
2013-07-28 02:10:00,78.3,76.1,29.98,WSW,242,0.0,0.0,93,0.00,,,0.00,0,Wunderground v.1.15,2013-07-28 06:10:00,
2013-07-28 02:16:00,78.3,76.1,29.97,WSW,242,0.0,0.0,93,0.00,,,0.00,0,Wunderground v.1.15,2013-07-28 06:16:00,
2013-07-28 02:22:00,78.2,76.0,29.97,WSW,242,0.0,0.0,93,0.00,,,0.00,0,Wunderground v.1.15,2013-07-28 06:22:00,
2013-07-28 02:28:00,78.2,76.0,29.97,WSW,242,0.0,0.0,93,0.00,,,0.00,0,Wunderground v.1.15,2013-07-28 06:28:00,
2013-07-28 02:34:00,78.1,75.9,29.97,WSW,242,0.0,0.0,93,0.00,,,0.00,0,Wunderground v.1.15,2013-07-28 06:34:00,
2013-07-28 02:40:00,78.1,75.9,29.97,WSW,242,0.0,0.0,93,0.00,,,0.00,0,Wunderground v.1.15,2013-07-28 06:40:00,
2013-07-28 02:46:00,78.0,75.8,29.96,SSW,194,0.0,0.0,93,0.00,,,0.00,0,Wunderground v.1.15,2013-07-28 06:46:00,
2013-07-28 02:52:00,77.8,75.6,29.96,SSW,193,0.0,0.0,93,0.00,,,0.00,0,Wunderground v.1.15,2013-07-28 06:52:00,
2013-07-28 02:58:00,77.7,75.5,29.96,SSW,193,0.0,0.0,93,0.00,,,0.00,0,Wunderground v.1.15,2013-07-28 06:58:00,
2013-07-28 03:04:00,77.6,75.4,29.95,SSW,193,0.0,0.0,93,0.00,,,0.00,0,Wunderground v.1.15,2013-07-28 07:04:00,
2013-07-28 03:10:00,77.6,75.4,29.95,SSW,193,0.0,0.0,93,0.00,,,0.00,0,Wunderground v.1.15,2013-07-28 07:10:00,
2013-07-28 03:16:00,77.5,75.3,29.95,SSW,193,0.0,0.0,93,0.00,,,0.00,0,Wunderground v.1.15,2013-07-28 07:16:00,
2013-07-28 03:22:00,77.5,75.3,29.95,SSW,193,0.0,0.0,93,0.00,,,0.00,0,Wunderground v.1.15,2013-07-28 07:22:00,
2013-07-28 03:28:00,77.5,75.3,29.95,SSW,193,0.0,0.0,93,0.00,,,0.00,0,Wunderground v.1.15,2013-07-28 07:28:00,
2013-07-28 03:34:00,77.5,75.3,29.95,SSW,193,0.0,0.0,93,0.00,,,0.00,0,Wunderground v.1.15,2013-07-28 07:34:00,
2013-07-28 03:40:00,77.6,75.4,29.95,SSW,193,0.0,0.0,93,0.00,,,0.00,0,Wunderground v.1.15,2013-07-28 07:40:00,
2013-07-28 03:46:00,77.6,75.4,29.95,SSW,193,0.0,0.0,93,0.00,,,0.00,0,Wunderground v.1.15,2013-07-28 07:46:00,
2013-07-28 03:52:00,77.6,75.4,29.95,SSW,193,0.0,0.0,93,0.00,,,0.00,0,Wunderground v.1.15,2013-07-28 07:52:00,
2013-07-28 03:58:00,77.6,75.4,29.95,SSW,193,0.0,0.0,93,0.00,,,0.00,0,Wunderground v.1.15,2013-07-28 07:58:00,
2013-07-28 04:04:00,77.6,75.4,29.96,SSW,193,0.0,0.0,93,0.00,,,0.00,0,Wunderground v.1.15,2013-07-28 08:04:00,
2013-07-28 04:10:00,77.6,75.4,29.96,SSW,192,1.0,1.0,93,0.00,,,0.00,0,Wunderground v.1.15,2013-07-28 08:10:00,
2013-07-28 04:16:00,77.6,75.4,29.96,SSW,192,1.0,1.0,93,0.00,,,0.00,0,Wunderground v.1.15,2013-07-28 08:16:00,
2013-07-28 04:22:00,77.7,75.5,29.96,SSW,192,0.0,0.0,93,0.00,,,0.00,0,Wunderground v.1.15,2013-07-28 08:22:00,
2013-07-28 04:28:00,77.7,75.5,29.96,SSW,192,0.0,0.0,93,0.00,,,0.00,0,Wunderground v.1.15,2013-07-28 08:28:00,
2013-07-28 04:34:00,77.7,75.8,29.97,SSW,192,0.0,0.0,94,0.00,,,0.00,0,Wunderground v.1.15,2013-07-28 08:34:00,
2013-07-28 04:40:00,77.7,75.8,29.97,SSW,194,1.0,1.0,94,0.00,,,0.00,0,Wunderground v.1.15,2013-07-28 08:40:00,
2013-07-28 04:46:00,77.7,75.8,29.97,SSW,194,2.0,2.0,94,0.00,,,0.00,0,Wunderground v.1.15,2013-07-28 08:46:00,
2013-07-28 04:52:00,77.7,75.8,29.97,SSW,194,1.0,1.0,94,0.00,,,0.00,0,Wunderground v.1.15,2013-07-28 08:52:00,
2013-07-28 04:58:00,77.7,75.8,29.97,SSW,194,0.0,1.0,94,0.00,,,0.00,0,Wunderground v.1.15,2013-07-28 08:58:00,
2013-07-28 05:04:00,77.7,75.8,29.97,SSW,193,0.0,0.0,94,0.00,,,0.00,0,Wunderground v.1.15,2013-07-28 09:04:00,
2013-07-28 05:10:00,77.7,75.8,29.97,SSW,192,0.0,0.0,94,0.00,,,0.00,0,Wunderground v.1.15,2013-07-28 09:10:00,
2013-07-28 05:16:00,77.6,75.7,29.97,SSW,194,1.0,2.0,94,0.00,,,0.00,0,Wunderground v.1.15,2013-07-28 09:16:00,
2013-07-28 05:22:00,77.6,75.7,29.97,SSW,196,2.0,2.0,94,0.00,,,0.00,0,Wunderground v.1.15,2013-07-28 09:22:00,
2013-07-28 05:28:00,77.6,75.7,29.97,SSW,196,0.0,2.0,94,0.00,,,0.00,0,Wunderground v.1.15,2013-07-28 09:28:00,
2013-07-28 05:34:00,77.6,75.7,29.97,SSW,196,0.0,0.0,94,0.00,,,0.00,0,Wunderground v.1.15,2013-07-28 09:34:00,
2013-07-28 05:40:00,77.5,75.6,29.97,SSW,196,0.0,0.0,94,0.00,,,0.00,0,Wunderground v.1.15,2013-07-28 09:40:00,
2013-07-28 05:46:00,77.5,75.6,29.97,SSW,195,0.0,0.0,94,0.00,,,0.00,0,Wunderground v.1.15,2013-07-28 09:46:00,
2013-07-28 05:52:00,77.5,76.0,29.98,SSW,195,0.0,0.0,95,0.00,,,0.00,0,Wunderground v.1.15,2013-07-28 09:52:00,
2013-07-28 05:58:00,77.5,76.0,29.98,SSW,194,0.0,2.0,95,0.00,,,0.00,0,Wunderground v.1.15,2013-07-28 09:58:00,
2013-07-28 06:04:00,77.4,75.9,29.98,SSW,194,0.0,2.0,95,0.00,,,0.00,0,Wunderground v.1.15,2013-07-28 10:04:00,
2013-07-28 06:10:00,77.4,75.9,29.98,SSW,194,1.0,1.0,95,0.00,,,0.00,0,Wunderground v.1.15,2013-07-28 10:10:00,
2013-07-28 06:16:00,77.4,75.9,29.98,SSW,194,0.0,1.0,95,0.00,,,0.00,0,Wunderground v.1.15,2013-07-28 10:16:00,
2013-07-28 06:22:00,77.4,75.9,29.98,SSW,194,0.0,0.0,95,0.00,,,0.00,0,Wunderground v.1.15,2013-07-28 10:22:00,
2013-07-28 06:28:00,77.4,75.9,29.99,SSW,194,0.0,0.0,95,0.00,,,0.00,0,Wunderground v.1.15,2013-07-28 10:28:00,
2013-07-28 06:34:00,77.3,75.8,29.99,SSW,194,0.0,1.0,95,0.00,,,0.00,0,Wunderground v.1.15,2013-07-28 10:34:00,
2013-07-28 06:40:00,77.3,75.8,29.99,SSW,194,0.0,0.0,95,0.00,,,0.00,0,Wunderground v.1.15,2013-07-28 10:40:00,
2013-07-28 06:46:00,77.2,75.7,29.99,SSW,195,0.0,1.0,95,0.00,,,0.00,0,Wunderground v.1.15,2013-07-28 10:46:00,
2013-07-28 06:52:00,77.2,75.7,29.99,SSW,195,0.0,0.0,95,0.00,,,0.00,5,Wunderground v.1.15,2013-07-28 10:52:00,
2013-07-28 06:58:00,77.1,75.6,29.99,SSW,195,0.0,0.0,95,0.00,,,0.00,7,Wunderground v.1.15,2013-07-28 10:58:00,
2013-07-28 07:04:00,77.1,75.6,29.99,SSW,195,0.0,0.0,95,0.00,,,0.00,14,Wunderground v.1.15,2013-07-28 11:04:00,
2013-07-28 07:10:00,77.0,75.5,29.99,SSW,194,0.0,0.0,95,0.00,,,0.00,19,Wunderground v.1.15,2013-07-28 11:10:00,
2013-07-28 07:16:00,77.1,75.6,29.99,SSW,194,0.0,0.0,95,0.00,,,0.00,39,Wunderground v.1.15,2013-07-28 11:16:00,
2013-07-28 07:22:00,77.1,75.6,30.00,SSW,195,0.0,0.0,95,0.00,,,0.00,51,Wunderground v.1.15,2013-07-28 11:22:00,
2013-07-28 07:28:00,77.3,76.1,29.99,SSW,194,0.0,0.0,96,0.00,,,0.00,63,Wunderground v.1.15,2013-07-28 11:28:00,
2013-07-28 07:34:00,77.4,76.2,29.99,SSW,195,0.0,0.0,96,0.00,,,0.00,74,Wunderground v.1.15,2013-07-28 11:34:00,
2013-07-28 07:40:00,77.6,76.4,30.00,SSW,195,0.0,0.0,96,0.00,,,0.00,90,Wunderground v.1.15,2013-07-28 11:40:00,
2013-07-28 07:46:00,77.7,76.5,30.00,SSW,195,0.0,0.0,96,0.00,,,0.00,107,Wunderground v.1.15,2013-07-28 11:46:00,
2013-07-28 07:52:00,77.9,76.4,30.00,SSW,195,0.0,0.0,95,0.00,,,0.00,127,Wunderground v.1.15,2013-07-28 11:52:00,
2013-07-28 07:58:00,78.1,76.6,30.00,SSW,195,0.0,0.0,95,0.00,,,0.00,149,Wunderground v.1.15,2013-07-28 11:58:00,
2013-07-28 08:04:00,78.3,76.4,30.01,SSW,207,0.0,2.0,94,0.00,,,0.00,158,Wunderground v.1.15,2013-07-28 12:04:00,
2013-07-28 08:10:00,78.7,76.8,30.01,SSW,212,1.0,1.0,94,0.00,,,0.00,176,Wunderground v.1.15,2013-07-28 12:10:00,
2013-07-28 08:16:00,79.0,76.8,30.02,SSW,213,0.0,2.0,93,0.00,,,0.00,199,Wunderground v.1.15,2013-07-28 12:16:00,
2013-07-28 08:22:00,79.2,76.7,30.02,SW,217,1.0,1.0,92,0.00,,,0.00,225,Wunderground v.1.15,2013-07-28 12:22:00,
2013-07-28 08:28:00,79.4,76.9,30.02,SW,220,1.0,5.0,92,0.00,,,0.00,237,Wunderground v.1.15,2013-07-28 12:28:00,
2013-07-28 08:34:00,79.9,76.7,30.02,SW,218,2.0,5.0,90,0.00,,,0.00,260,Wunderground v.1.15,2013-07-28 12:34:00,
2013-07-28 08:40:00,80.2,76.7,30.02,SW,227,2.0,5.0,89,0.00,,,0.00,281,Wunderground v.1.15,2013-07-28 12:40:00,
2013-07-28 08:46:00,80.5,76.3,30.02,SW,232,2.0,5.0,87,0.00,,,0.00,299,Wunderground v.1.15,2013-07-28 12:46:00,
2013-07-28 08:52:00,80.9,76.7,30.02,SW,230,1.0,2.0,87,0.00,,,0.00,320,Wunderground v.1.15,2013-07-28 12:52:00,
2013-07-28 08:58:00,81.3,76.7,30.02,SW,230,1.0,2.0,86,0.00,,,0.00,345,Wunderground v.1.15,2013-07-28 12:58:00,
2013-07-28 09:04:00,81.5,76.6,30.02,SW,232,1.0,4.0,85,0.00,,,0.00,373,Wunderground v.1.15,2013-07-28 13:04:00,
2013-07-28 09:10:00,81.6,76.6,30.02,WSW,247,3.0,3.0,85,0.00,,,0.00,378,Wunderground v.1.15,2013-07-28 13:10:00,
2013-07-28 09:16:00,81.6,76.3,30.03,WSW,254,3.0,5.0,84,0.00,,,0.00,417,Wunderground v.1.15,2013-07-28 13:16:00,
2013-07-28 09:22:00,81.8,76.5,30.03,WNW,290,3.0,5.0,84,0.00,,,0.00,466,Wunderground v.1.15,2013-07-28 13:22:00,
2013-07-28 09:28:00,81.9,76.6,30.03,West,264,3.0,5.0,84,0.00,,,0.00,429,Wunderground v.1.15,2013-07-28 13:28:00,
2013-07-28 09:34:00,82.2,76.9,30.03,WSW,242,1.0,3.0,84,0.00,,,0.00,469,Wunderground v.1.15,2013-07-28 13:34:00,
2013-07-28 09:40:00,82.9,77.2,30.03,WSW,242,1.0,1.0,83,0.00,,,0.00,540,Wunderground v.1.15,2013-07-28 13:40:00,
2013-07-28 09:46:00,83.3,76.9,30.03,WSW,242,0.0,1.0,81,0.00,,,0.00,534,Wunderground v.1.15,2013-07-28 13:46:00,
2013-07-28 09:52:00,84.4,78.7,30.03,WSW,242,0.0,0.0,83,0.00,,,0.00,596,Wunderground v.1.15,2013-07-28 13:52:00,
2013-07-28 09:58:00,84.9,76.9,30.03,West,274,0.0,0.0,77,0.00,,,0.00,169,Wunderground v.1.15,2013-07-28 13:58:00,
2013-07-28 10:04:00,84.9,76.5,30.03,WNW,290,0.0,0.0,76,0.00,,,0.00,599,Wunderground v.1.15,2013-07-28 14:04:00,
2013-07-28 10:10:00,84.9,76.5,30.03,WNW,290,0.0,0.0,76,0.00,,,0.00,654,Wunderground v.1.15,2013-07-28 14:10:00,
2013-07-28 10:16:00,85.0,77.0,30.03,WNW,292,0.0,0.0,77,0.00,,,0.00,738,Wunderground v.1.15,2013-07-28 14:16:00,
2013-07-28 10:22:00,85.1,77.1,30.04,NNE,22,0.0,0.0,77,0.00,,,0.00,710,Wunderground v.1.15,2013-07-28 14:22:00,
2013-07-28 10:28:00,84.7,77.1,30.04,NE,51,1.0,4.0,78,0.00,,,0.00,712,Wunderground v.1.15,2013-07-28 14:28:00,
2013-07-28 10:34:00,84.4,76.8,30.04,NE,51,2.0,2.0,78,0.00,,,0.00,693,Wunderground v.1.15,2013-07-28 14:34:00,
2013-07-28 10:40:00,84.2,76.6,30.04,NE,43,1.0,4.0,78,0.00,,,0.00,689,Wunderground v.1.15,2013-07-28 14:40:00,
2013-07-28 10:46:00,84.4,75.6,30.04,NE,34,1.0,4.0,75,0.00,,,0.00,707,Wunderground v.1.15,2013-07-28 14:46:00,
2013-07-28 10:52:00,84.6,76.2,30.04,NE,38,0.0,1.0,76,0.00,,,0.00,731,Wunderground v.1.15,2013-07-28 14:52:00,
2013-07-28 10:58:00,84.5,76.1,30.03,NE,43,1.0,1.0,76,0.00,,,0.00,747,Wunderground v.1.15,2013-07-28 14:58:00,
2013-07-28 11:04:00,85.0,77.0,30.04,East,94,1.0,1.0,77,0.00,,,0.00,751,Wunderground v.1.15,2013-07-28 15:04:00,
2013-07-28 11:10:00,85.3,76.9,30.03,East,94,0.0,0.0,76,0.00,,,0.00,775,Wunderground v.1.15,2013-07-28 15:10:00,
2013-07-28 11:16:00,85.7,76.5,30.03,East,86,0.0,4.0,74,0.00,,,0.00,789,Wunderground v.1.15,2013-07-28 15:16:00,
2013-07-28 11:22:00,85.7,75.2,30.03,East,86,0.0,0.0,71,0.00,,,0.00,803,Wunderground v.1.15,2013-07-28 15:22:00,
2013-07-28 11:28:00,85.9,75.8,30.04,East,85,0.0,0.0,72,0.00,,,0.00,817,Wunderground v.1.15,2013-07-28 15:28:00,
2013-07-28 11:34:00,86.0,76.7,30.04,East,89,0.0,0.0,74,0.00,,,0.00,838,Wunderground v.1.15,2013-07-28 15:34:00,
2013-07-28 11:40:00,86.4,77.9,30.04,East,80,0.0,6.0,76,0.00,,,0.00,865,Wunderground v.1.15,2013-07-28 15:40:00,
2013-07-28 11:46:00,86.0,76.3,30.04,East,91,1.0,6.0,73,0.00,,,0.00,874,Wunderground v.1.15,2013-07-28 15:46:00,
2013-07-28 11:52:00,85.7,75.6,30.04,East,86,2.0,2.0,72,0.00,,,0.00,904,Wunderground v.1.15,2013-07-28 15:52:00,
2013-07-28 11:58:00,85.8,75.3,30.04,ENE,78,1.0,5.0,71,0.00,,,0.00,900,Wunderground v.1.15,2013-07-28 15:58:00,
2013-07-28 12:04:00,85.6,75.1,30.05,East,80,2.0,3.0,71,0.00,,,0.00,956,Wunderground v.1.15,2013-07-28 16:04:00,
2013-07-28 12:10:00,85.7,74.8,30.04,ENE,76,3.0,4.0,70,0.00,,,0.00,1023,Wunderground v.1.15,2013-07-28 16:10:00,
2013-07-28 12:16:00,86.0,76.3,30.04,ENE,67,3.0,4.0,73,0.00,,,0.00,1074,Wunderground v.1.15,2013-07-28 16:16:00,
2013-07-28 12:22:00,86.4,74.6,30.04,ENE,67,1.0,5.0,68,0.00,,,0.00,390,Wunderground v.1.15,2013-07-28 16:22:00,
2013-07-28 12:28:00,86.9,74.6,30.04,ENE,67,2.0,5.0,67,0.00,,,0.00,1069,Wunderground v.1.15,2013-07-28 16:28:00,
2013-07-28 12:34:00,87.2,74.5,30.04,ENE,72,2.0,2.0,66,0.00,,,0.00,1027,Wunderground v.1.15,2013-07-28 16:34:00,
2013-07-28 12:40:00,87.2,75.8,30.03,ESE,119,1.0,1.0,69,0.00,,,0.00,237,Wunderground v.1.15,2013-07-28 16:40:00,
2013-07-28 12:46:00,87.0,76.5,30.04,ENE,61,1.0,1.0,71,0.00,,,0.00,1005,Wunderground v.1.15,2013-07-28 16:46:00,
2013-07-28 12:52:00,87.1,76.5,30.04,East,89,1.0,4.0,71,0.00,,,0.00,995,Wunderground v.1.15,2013-07-28 16:52:00,
2013-07-28 12:58:00,86.7,76.6,30.04,East,88,4.0,6.0,72,0.00,,,0.00,1014,Wunderground v.1.15,2013-07-28 16:58:00,
2013-07-28 13:04:00,86.5,76.4,30.04,ENE,61,5.0,5.0,72,0.00,,,0.00,993,Wunderground v.1.15,2013-07-28 17:04:00,
2013-07-28 13:10:00,86.4,76.3,30.04,ENE,69,4.0,4.0,72,0.00,,,0.00,1016,Wunderground v.1.15,2013-07-28 17:10:00,
2013-07-28 13:16:00,86.8,76.7,30.04,East,83,3.0,4.0,72,0.00,,,0.00,1020,Wunderground v.1.15,2013-07-28 17:16:00,
2013-07-28 13:22:00,87.0,77.7,30.04,East,94,3.0,6.0,74,0.00,,,0.00,1037,Wunderground v.1.15,2013-07-28 17:22:00,
2013-07-28 13:28:00,86.8,76.3,30.04,ENE,71,4.0,10.0,71,0.00,,,0.00,1009,Wunderground v.1.15,2013-07-28 17:28:00,
2013-07-28 13:34:00,86.5,76.8,30.04,ENE,74,5.0,8.0,73,0.00,,,0.00,1004,Wunderground v.1.15,2013-07-28 17:34:00,
2013-07-28 13:40:00,86.6,78.1,30.04,ENE,77,4.0,4.0,76,0.00,,,0.00,1007,Wunderground v.1.15,2013-07-28 17:40:00,
2013-07-28 13:46:00,86.8,76.7,30.04,ENE,58,3.0,6.0,72,0.00,,,0.00,990,Wunderground v.1.15,2013-07-28 17:46:00,
2013-07-28 13:52:00,86.3,76.2,30.04,East,96,4.0,4.0,72,0.00,,,0.00,984,Wunderground v.1.15,2013-07-28 17:52:00,
2013-07-28 13:58:00,87.0,77.7,30.04,East,86,3.0,4.0,74,0.00,,,0.00,984,Wunderground v.1.15,2013-07-28 17:58:00,
2013-07-28 14:04:00,87.4,77.7,30.04,ESE,114,3.0,5.0,73,0.00,,,0.00,977,Wunderground v.1.15,2013-07-28 18:04:00,
2013-07-28 14:10:00,87.3,77.6,30.03,ESE,112,4.0,5.0,73,0.00,,,0.00,976,Wunderground v.1.15,2013-07-28 18:10:00,
2013-07-28 14:16:00,87.0,78.1,30.03,East,94,4.0,8.0,75,0.00,,,0.00,960,Wunderground v.1.15,2013-07-28 18:16:00,
2013-07-28 14:22:00,87.1,77.4,30.03,East,86,5.0,6.0,73,0.00,,,0.00,956,Wunderground v.1.15,2013-07-28 18:22:00,
2013-07-28 14:28:00,87.0,77.3,30.02,ENE,72,4.0,7.0,73,0.00,,,0.00,958,Wunderground v.1.15,2013-07-28 18:28:00,
2013-07-28 14:34:00,87.0,77.3,30.02,SE,137,5.0,6.0,73,0.00,,,0.00,951,Wunderground v.1.15,2013-07-28 18:34:00,
2013-07-28 14:40:00,87.0,77.3,30.04,ESE,116,5.0,10.0,73,0.00,,,0.00,969,Wunderground v.1.15,2013-07-28 18:40:00,
2013-07-28 14:46:00,87.1,77.8,30.05,SE,126,7.0,11.0,74,0.00,,,0.00,1032,Wunderground v.1.15,2013-07-28 18:46:00,
2013-07-28 14:52:00,86.8,77.5,30.04,SE,140,8.0,9.0,74,0.00,,,0.00,1106,Wunderground v.1.15,2013-07-28 18:52:00,
2013-07-28 14:58:00,86.6,77.7,30.04,ESE,118,8.0,14.0,75,0.00,,,0.00,969,Wunderground v.1.15,2013-07-28 18:58:00,
2013-07-28 15:04:00,85.9,77.1,30.05,ESE,103,8.0,10.0,75,0.00,,,0.00,134,Wunderground v.1.15,2013-07-28 19:04:00,
2013-07-28 15:10:00,85.0,77.4,30.04,SSW,200,9.0,15.0,78,0.00,,,0.00,100,Wunderground v.1.15,2013-07-28 19:10:00,
2013-07-28 15:16:00,82.8,76.4,30.05,SSE,167,12.0,22.0,81,0.42,,,0.07,107,Wunderground v.1.15,2013-07-28 19:16:00,
2013-07-28 15:22:00,79.9,74.3,30.05,SW,223,12.0,13.0,83,0.41,,,0.10,44,Wunderground v.1.15,2013-07-28 19:22:00,
2013-07-28 15:28:00,78.7,73.8,30.05,SSW,206,6.0,13.0,85,0.12,,,0.12,69,Wunderground v.1.15,2013-07-28 19:28:00,
2013-07-28 15:34:00,77.8,73.6,30.05,SW,215,6.0,6.0,87,3.22,,,0.29,120,Wunderground v.1.15,2013-07-28 19:34:00,
2013-07-28 15:40:00,77.5,74.0,30.04,SSW,192,5.0,5.0,89,0.65,,,0.34,232,Wunderground v.1.15,2013-07-28 19:40:00,
2013-07-28 15:46:00,77.4,74.6,30.02,South,190,4.0,5.0,91,0.94,,,0.45,341,Wunderground v.1.15,2013-07-28 19:46:00,
2013-07-28 15:52:00,77.9,75.4,30.01,South,189,1.0,2.0,92,0.27,,,0.48,431,Wunderground v.1.15,2013-07-28 19:52:00,
2013-07-28 15:58:00,78.1,75.6,30.00,SE,146,0.0,2.0,92,0.07,,,0.48,487,Wunderground v.1.15,2013-07-28 19:58:00,
2013-07-28 16:04:00,78.5,76.0,30.00,SE,138,1.0,6.0,92,0.04,,,0.48,995,Wunderground v.1.15,2013-07-28 20:04:00,
2013-07-28 16:10:00,79.3,76.4,30.00,SE,136,2.0,2.0,91,0.00,,,0.48,550,Wunderground v.1.15,2013-07-28 20:10:00,
2013-07-28 16:16:00,80.0,76.1,30.00,SE,136,0.0,2.0,88,0.00,,,0.48,893,Wunderground v.1.15,2013-07-28 20:16:00,
2013-07-28 16:22:00,80.9,76.7,30.00,SE,140,1.0,5.0,87,0.00,,,0.48,891,Wunderground v.1.15,2013-07-28 20:22:00,
2013-07-28 16:28:00,81.7,76.7,30.00,South,175,2.0,5.0,85,0.00,,,0.48,819,Wunderground v.1.15,2013-07-28 20:28:00,
2013-07-28 16:34:00,82.5,75.7,30.00,SSE,153,2.0,6.0,80,0.00,,,0.48,749,Wunderground v.1.15,2013-07-28 20:34:00,
2013-07-28 16:40:00,83.0,73.9,30.00,SSE,155,3.0,4.0,74,0.00,,,0.48,784,Wunderground v.1.15,2013-07-28 20:40:00,
2013-07-28 16:46:00,83.7,74.1,30.00,SSE,161,3.0,4.0,73,0.00,,,0.48,733,Wunderground v.1.15,2013-07-28 20:46:00,
2013-07-28 16:52:00,84.5,73.6,30.01,SSE,147,3.0,6.0,70,0.00,,,0.48,724,Wunderground v.1.15,2013-07-28 20:52:00,
2013-07-28 16:58:00,85.3,74.8,30.01,SE,140,3.0,6.0,71,0.00,,,0.48,710,Wunderground v.1.15,2013-07-28 20:58:00,
2013-07-28 17:04:00,85.9,73.2,30.01,SSE,161,4.0,5.0,66,0.00,,,0.48,701,Wunderground v.1.15,2013-07-28 21:04:00,
2013-07-28 17:10:00,86.3,73.1,30.01,South,180,3.0,3.0,65,0.00,,,0.48,686,Wunderground v.1.15,2013-07-28 21:10:00,
2013-07-28 17:16:00,86.7,72.6,30.01,ESE,119,3.0,3.0,63,0.00,,,0.48,679,Wunderground v.1.15,2013-07-28 21:16:00,
2013-07-28 17:22:00,86.9,71.8,30.02,SSE,155,3.0,3.0,61,0.00,,,0.48,661,Wunderground v.1.15,2013-07-28 21:22:00,
2013-07-28 17:28:00,87.1,71.5,30.02,SE,138,4.0,5.0,60,0.00,,,0.48,638,Wunderground v.1.15,2013-07-28 21:28:00,
2013-07-28 17:34:00,87.4,71.8,30.02,SE,144,3.0,3.0,60,0.00,,,0.48,591,Wunderground v.1.15,2013-07-28 21:34:00,
2013-07-28 17:40:00,87.6,72.5,30.01,SSE,150,4.0,7.0,61,0.00,,,0.48,346,Wunderground v.1.15,2013-07-28 21:40:00,
2013-07-28 17:46:00,87.3,72.2,30.01,SSE,165,5.0,9.0,61,0.00,,,0.48,513,Wunderground v.1.15,2013-07-28 21:46:00,
2013-07-28 17:52:00,87.2,72.6,30.02,SSE,167,5.0,5.0,62,0.00,,,0.48,513,Wunderground v.1.15,2013-07-28 21:52:00,
2013-07-28 17:58:00,87.2,72.1,30.02,SE,140,4.0,10.0,61,0.00,,,0.48,480,Wunderground v.1.15,2013-07-28 21:58:00,
2013-07-28 18:04:00,87.1,72.5,30.03,SE,142,4.0,5.0,62,0.00,,,0.48,454,Wunderground v.1.15,2013-07-28 22:04:00,
2013-07-28 18:10:00,87.2,72.6,30.03,South,178,4.0,4.0,62,0.00,,,0.48,422,Wunderground v.1.15,2013-07-28 22:10:00,
2013-07-28 18:16:00,87.1,72.5,30.03,South,175,4.0,6.0,62,0.00,,,0.48,211,Wunderground v.1.15,2013-07-28 22:16:00,
2013-07-28 18:22:00,86.8,72.2,30.03,SSE,150,3.0,4.0,62,0.00,,,0.48,149,Wunderground v.1.15,2013-07-28 22:22:00,
2013-07-28 18:28:00,86.5,71.9,30.03,SSE,160,3.0,6.0,62,0.00,,,0.48,165,Wunderground v.1.15,2013-07-28 22:28:00,
2013-07-28 18:34:00,86.1,73.0,30.03,SSE,150,3.0,3.0,65,0.00,,,0.48,98,Wunderground v.1.15,2013-07-28 22:34:00,
2013-07-28 18:40:00,85.6,74.3,30.03,SE,136,3.0,3.0,69,0.00,,,0.48,81,Wunderground v.1.15,2013-07-28 22:40:00,
2013-07-28 18:46:00,85.1,74.2,30.02,SE,134,2.0,3.0,70,0.00,,,0.48,76,Wunderground v.1.15,2013-07-28 22:46:00,
2013-07-28 18:52:00,84.8,74.3,30.02,SE,134,1.0,1.0,71,0.00,,,0.48,69,Wunderground v.1.15,2013-07-28 22:52:00,
2013-07-28 18:58:00,84.5,74.9,30.02,SE,133,0.0,1.0,73,0.00,,,0.48,63,Wunderground v.1.15,2013-07-28 22:58:00,
2013-07-28 19:04:00,84.2,75.0,30.02,SE,130,0.0,0.0,74,0.00,,,0.48,60,Wunderground v.1.15,2013-07-28 23:04:00,
2013-07-28 19:10:00,83.9,74.7,30.02,SE,130,0.0,0.0,74,0.00,,,0.48,54,Wunderground v.1.15,2013-07-28 23:10:00,
2013-07-28 19:16:00,83.7,74.9,30.03,SE,130,0.0,0.0,75,0.00,,,0.48,47,Wunderground v.1.15,2013-07-28 23:16:00,
2013-07-28 19:22:00,83.5,75.1,30.04,SE,128,0.0,0.0,76,0.00,,,0.48,39,Wunderground v.1.15,2013-07-28 23:22:00,
2013-07-28 19:28:00,83.3,74.9,30.04,SE,128,0.0,0.0,76,0.00,,,0.48,35,Wunderground v.1.15,2013-07-28 23:28:00,
2013-07-28 19:34:00,83.3,75.3,30.05,SE,128,0.0,0.0,77,0.00,,,0.48,30,Wunderground v.1.15,2013-07-28 23:34:00,
2013-07-28 19:40:00,83.2,75.2,30.05,SE,128,0.0,0.0,77,0.00,,,0.48,23,Wunderground v.1.15,2013-07-28 23:40:00,
2013-07-28 19:46:00,83.0,75.4,30.05,WNW,300,1.0,9.0,78,0.00,,,0.48,18,Wunderground v.1.15,2013-07-28 23:46:00,
2013-07-28 19:52:00,82.4,74.5,30.06,WNW,296,3.0,3.0,77,0.00,,,0.48,12,Wunderground v.1.15,2013-07-28 23:52:00,
2013-07-28 19:58:00,81.8,73.9,30.05,NW,307,4.0,9.0,77,0.00,,,0.48,9,Wunderground v.1.15,2013-07-28 23:58:00,
2013-07-28 20:04:00,81.4,73.9,30.05,WNW,302,2.0,4.0,78,0.00,,,0.48,5,Wunderground v.1.15,2013-07-29 00:04:00,
2013-07-28 20:10:00,81.0,73.9,30.06,WNW,300,1.0,3.0,79,0.00,,,0.48,0,Wunderground v.1.15,2013-07-29 00:10:00,
2013-07-28 20:16:00,80.7,73.6,30.06,WSW,256,1.0,3.0,79,0.00,,,0.48,0,Wunderground v.1.15,2013-07-29 00:16:00,
2013-07-28 20:22:00,80.4,73.7,30.06,West,263,1.0,1.0,80,0.00,,,0.48,0,Wunderground v.1.15,2013-07-29 00:22:00,
2013-07-28 20:28:00,80.2,73.5,30.06,West,273,0.0,1.0,80,0.00,,,0.48,0,Wunderground v.1.15,2013-07-29 00:28:00,
2013-07-28 20:34:00,80.1,73.7,30.06,West,273,0.0,0.0,81,0.00,,,0.48,0,Wunderground v.1.15,2013-07-29 00:34:00,
2013-07-28 20:40:00,79.9,73.5,30.06,West,273,0.0,0.0,81,0.00,,,0.48,0,Wunderground v.1.15,2013-07-29 00:40:00,
2013-07-28 20:46:00,79.7,73.0,30.06,West,273,0.0,0.0,80,0.00,,,0.48,0,Wunderground v.1.15,2013-07-29 00:46:00,
2013-07-28 20:52:00,79.6,73.3,30.06,West,273,0.0,0.0,81,0.00,,,0.48,0,Wunderground v.1.15,2013-07-29 00:52:00,
2013-07-28 20:58:00,79.4,73.1,30.06,West,273,0.0,0.0,81,0.00,,,0.48,0,Wunderground v.1.15,2013-07-29 00:58:00,
2013-07-28 21:04:00,79.3,73.3,30.06,West,273,0.0,0.0,82,0.00,,,0.48,0,Wunderground v.1.15,2013-07-29 01:04:00,
2013-07-28 21:10:00,79.2,73.2,30.06,West,273,0.0,0.0,82,0.00,,,0.48,0,Wunderground v.1.15,2013-07-29 01:10:00,
2013-07-28 21:18:00,79.1,73.5,30.06,West,273,0.0,0.0,83,0.00,,,0.48,0,Wunderground v.1.15,2013-07-29 01:18:00,
2013-07-28 21:24:00,79.0,73.4,30.07,West,273,0.0,0.0,83,0.00,,,0.48,0,Wunderground v.1.15,2013-07-29 01:24:00,
2013-07-28 21:30:00,78.9,73.7,30.07,West,273,0.0,0.0,84,0.00,,,0.48,0,Wunderground v.1.15,2013-07-29 01:30:00,
2013-07-28 21:36:00,78.9,73.7,30.07,West,273,0.0,0.0,84,0.00,,,0.48,0,Wunderground v.1.15,2013-07-29 01:36:00,
2013-07-28 21:42:00,78.9,73.7,30.07,West,273,0.0,0.0,84,0.00,,,0.48,0,Wunderground v.1.15,2013-07-29 01:42:00,
2013-07-28 21:48:00,78.9,74.0,30.07,West,273,0.0,0.0,85,0.00,,,0.48,0,Wunderground v.1.15,2013-07-29 01:48:00,
2013-07-28 21:54:00,79.0,74.5,30.07,West,273,0.0,0.0,86,0.00,,,0.48,0,Wunderground v.1.15,2013-07-29 01:54:00,
2013-07-28 22:00:00,79.1,74.5,30.07,West,273,0.0,0.0,86,0.00,,,0.48,0,Wunderground v.1.15,2013-07-29 02:00:00,
2013-07-28 22:06:00,79.3,74.7,30.07,West,273,0.0,0.0,86,0.00,,,0.48,0,Wunderground v.1.15,2013-07-29 02:06:00,
2013-07-28 22:12:00,79.6,74.7,30.07,West,277,0.0,0.0,85,0.00,,,0.48,0,Wunderground v.1.15,2013-07-29 02:12:00,
2013-07-28 22:18:00,79.8,74.9,30.08,SSW,195,0.0,0.0,85,0.00,,,0.48,0,Wunderground v.1.15,2013-07-29 02:18:00,
2013-07-28 22:24:00,79.9,75.0,30.08,SSW,195,0.0,0.0,85,0.00,,,0.48,0,Wunderground v.1.15,2013-07-29 02:24:00,
2013-07-28 22:30:00,80.0,75.1,30.08,SSW,195,0.0,0.0,85,0.00,,,0.48,0,Wunderground v.1.15,2013-07-29 02:30:00,
2013-07-28 22:36:00,80.0,75.1,30.08,SSW,195,0.0,0.0,85,0.00,,,0.48,0,Wunderground v.1.15,2013-07-29 02:36:00,
2013-07-28 22:42:00,80.0,75.1,30.08,SSW,195,0.0,0.0,85,0.00,,,0.48,0,Wunderground v.1.15,2013-07-29 02:42:00,
2013-07-28 22:48:00,80.0,75.1,30.08,SSW,195,0.0,0.0,85,0.00,,,0.48,0,Wunderground v.1.15,2013-07-29 02:48:00,
2013-07-28 22:54:00,80.1,74.8,30.08,SSW,195,0.0,0.0,84,0.00,,,0.48,0,Wunderground v.1.15,2013-07-29 02:54:00,
2013-07-28 23:00:00,80.1,74.8,30.08,SSW,195,0.0,0.0,84,0.00,,,0.48,0,Wunderground v.1.15,2013-07-29 03:00:00,
2013-07-28 23:06:00,80.0,74.4,30.08,SSW,195,0.0,0.0,83,0.00,,,0.48,0,Wunderground v.1.15,2013-07-29 03:06:00,
2013-07-28 23:12:00,80.0,74.4,30.08,SSW,195,0.0,0.0,83,0.00,,,0.48,0,Wunderground v.1.15,2013-07-29 03:12:00,
2013-07-28 23:18:00,80.0,74.4,30.08,SSW,195,0.0,0.0,83,0.00,,,0.48,0,Wunderground v.1.15,2013-07-29 03:18:00,
2013-07-28 23:24:00,79.9,74.3,30.08,SSW,195,0.0,0.0,83,0.00,,,0.48,0,Wunderground v.1.15,2013-07-29 03:24:00,
2013-07-28 23:30:00,79.9,74.3,30.08,SSW,195,0.0,0.0,83,0.00,,,0.48,0,Wunderground v.1.15,2013-07-29 03:30:00,
2013-07-28 23:36:00,79.8,74.2,30.08,SSW,195,0.0,0.0,83,0.00,,,0.48,0,Wunderground v.1.15,2013-07-29 03:36:00,
2013-07-28 23:42:00,79.8,74.2,30.08,SSW,195,0.0,0.0,83,0.00,,,0.48,0,Wunderground v.1.15,2013-07-29 03:42:00,
2013-07-28 23:48:00,79.7,74.1,30.08,SSW,195,0.0,0.0,83,0.00,,,0.48,0,Wunderground v.1.15,2013-07-29 03:48:00,
2013-07-28 23:54:00,79.6,74.3,30.08,SSW,195,0.0,0.0,84,0.00,,,0.48,0,Wunderground v.1.15,2013-07-29 03:54:00,